DMSP 5D-2 F13 DEB, 40396

Orbit data source: Space-Track

DMSP 5D-2 F13 DEB, 40396 is space debris in SSO originally from a launch on Fri, 24 Mar 1995 UTC launched from the Air Force Western Test Range (AFWTR). Debris objects in space refer to the collection of defunct objects orbiting the Earth. Examples of debris include non-operational satellites, rocket bodies, and fragments generated from explosions, collisions, or faulty payload assembly.

Loading next visibility...
Identifier
40396, 1995-015H
Orbit
SSO
Country
Flag of USUS
Related business
Manufacturer
Unknown
Mission
Spacecraft
Bus & Motor
Unknown
Mass
Unknown
Launch date (UTC)
1995-03-24 (31 years ago)
Launch vehicle
Unknown
Launch site
Air Force Western Test Range (AFWTR)
Object type
Payload
Rocket body
Debris
Shape & HBR
Unknown shape, 0.1 m
Radar Cross Section
Small (<0.1 m²)

Expand to show TLE details & history
Last TLE update: 2 days ago

TLE from 2 days ago
0 DMSP 5D-2 F13 DEB
1 40396U 95015H   25287.98951867  .00000204  00000-0  11735-3 0  9995
2 40396  98.7454 299.9755 0015474  18.3651 341.8081 14.19499050550807
Epoch: 2025-10-14T23:44Z
TLE epoch observation values (Epoch: 2025-10-14T23:44:54.413Z)
Latitude
0.00003°
Longitude
-80.02126°
Altitude
819.368 km
Speed
7.449 km/s
True Right ascension
19h 59m 54s
True Declination
0° 00' 00"
Sunlit
Object was in daylight at epoch
Visualization orbit readout
Latitude
Unknown
Longitude
Unknown
Altitude
Unknown
Speed
Unknown
Apparent Right ascension
Unknown
Apparent Declination
Unknown
Sunlit
N/A
Visualization observer readout
Local Sidereal Time
07:52:30
Azimuth
Unknown
Elevation
Unknown
Doppler factor
Unknown
Orbital elements
Apogee altitude
835.353 km
Perigee altitude
813.064 km
Semi-major axis
7,202.345 km
Eccentricity
0.00155
Inclination
98.7454°
RAAN
299.9755°
Arg. of periapsis
18.3651°
True anomaly
341.75264°
Mean anomaly
341.8081°
Eccentric anomaly
341.78038°
Mean motion
3.55085 °/min
Orbital period
101.38 mins
BSTAR
0.00011735
Loading maneuver chart data...
Computing Atmospheric mass density...

Documentation

Showing up to 5 results
|